Weather History for KSUN - May, 2013

Change the Weather History Date:

Sunday, May 5, 2013

  Actual Average (KJER) Record (KJER)
Temperature  
Mean Temperature 52 °F 52 °F  
Max Temperature 66 °F 64 °F 92 °F (1966)
Min Temperature 37 °F 39 °F 27 °F (1982)
Degree Days  
Heating Degree Days 14 13  
Month to date heating degree days 70  
Since 1 July heating degree days 6273  
Cooling Degree Days 0 0  
Month to date cooling degree days 0  
Year to date cooling degree days 0  
Growing Degree Days 2 (Base 50)    
Moisture  
Dew Point 31 °F    
Average Humidity 54    
Maximum Humidity 75    
Minimum Humidity 26    
Precipitation  
Precipitation 0.00 in 0.05 in 0.32 in (1995)
Month to date precipitation 0.28  
Year to date precipitation 4.64  
Sea Level Pressure  
Sea Level Pressure 29.98 in    
Wind  
Wind Speed 9 mph (NNW)    
Max Wind Speed 16 mph    
Max Gust Speed 28 mph    
Visibility 10 miles    
Events      
T = Trace of Precipitation, MM = Missing Value Source: NWS Daily Summary

Daily Weather History Graph

Daily Weather History Graph

Search for Another Location

Airport or City:

Trip Planner

Search our weather history database for the weather conditions in past years. The results will help you decide how hot, cold, wet, or windy it might be!

Date:

Astronomy

May. 05, 2013 Rise Set
Actual Time 6:24 AM MDT 8:44 PM MDT
Civil Twilight 5:52 AM MDT 9:16 PM MDT
Nautical Twilight 5:12 AM MDT 9:56 PM MDT
Astronomical Twilight 4:28 AM MDT 10:40 PM MDT
Moon 4:04 AM MDT (5/5) 4:41 PM MDT (5/5)
Length of Visible Light 15h 24m
Length of Day
14h 20m
Waning Crescent, 17% of the Moon is Illuminated
May 5
Waning Crescent
May 9
New
May 17
First Quarter
May 24
Full
May 31
Last Quarter

Hourly Weather History & Observations

Time (MDT) Temp. Windchill Dew Point Humidity Pressure Visibility Wind Dir Wind Speed Gust Speed Precip Events Conditions
12:15 AM 44.6 °F 39.7 °F 32.0 °F 61% 30.02 in 10.0 mi NNW 9.2 mph - N/A   Clear
12:35 AM 44.6 °F 38.8 °F 32.0 °F 61% 30.02 in 10.0 mi NNW 11.5 mph - N/A   Clear
12:55 AM 44.6 °F 39.2 °F 32.0 °F 61% 30.01 in 10.0 mi NNW 10.4 mph - N/A   Clear
1:15 AM 42.8 °F 37.0 °F 32.0 °F 66% 30.02 in 10.0 mi NNW 10.4 mph - N/A   Clear
1:35 AM 42.8 °F 36.6 °F 32.0 °F 66% 30.02 in 10.0 mi NNW 11.5 mph - N/A   Clear
1:55 AM 41.0 °F 33.9 °F 32.0 °F 70% 30.02 in 10.0 mi NW 12.7 mph - N/A   Clear
2:15 AM 41.0 °F 35.2 °F 32.0 °F 70% 30.02 in 10.0 mi NW 9.2 mph - N/A   Clear
2:35 AM 41.0 °F 35.8 °F 32.0 °F 70% 30.01 in 10.0 mi NW 8.1 mph - N/A   Clear
2:55 AM 41.0 °F 37.1 °F 32.0 °F 70% 30.02 in 10.0 mi NW 5.8 mph - N/A   Clear
3:15 AM 41.0 °F 36.4 °F 32.0 °F 70% 30.02 in 10.0 mi NW 6.9 mph - N/A   Scattered Clouds
3:35 AM 41.0 °F 34.3 °F 32.0 °F 70% 30.01 in 10.0 mi NW 11.5 mph - N/A   Scattered Clouds
3:55 AM 41.0 °F 38.0 °F 32.0 °F 70% 30.01 in 10.0 mi NW 4.6 mph - N/A   Scattered Clouds
4:15 AM 41.0 °F 35.8 °F 32.0 °F 70% 30.00 in 10.0 mi NNW 8.1 mph - N/A   Clear
4:55 AM 39.2 °F 33.6 °F 32.0 °F 75% 30.01 in 10.0 mi WNW 8.1 mph - N/A   Clear
5:15 AM 39.2 °F 31.2 °F 30.2 °F 70% 30.00 in 10.0 mi NNW 13.8 mph - N/A   Scattered Clouds
5:35 AM 37.4 °F 29.8 °F 30.2 °F 75% 30.00 in 10.0 mi NNW 11.5 mph - N/A   Clear
5:55 AM 37.4 °F 32.1 °F 30.2 °F 75% 30.00 in 10.0 mi NNW 6.9 mph - N/A   Clear
6:15 AM 37.4 °F 30.8 °F 30.2 °F 75% 30.00 in 10.0 mi NW 9.2 mph 16.1 mph N/A   Clear
6:35 AM 37.4 °F 29.8 °F 30.2 °F 75% 30.00 in 10.0 mi NW 11.5 mph 17.3 mph N/A   Clear
6:55 AM 37.4 °F 30.3 °F 30.2 °F 75% 30.00 in 10.0 mi NNW 10.4 mph - N/A   Clear
7:50 AM 42.8 °F 36.2 °F 30.2 °F 61% 30.00 in 10.0 mi WNW 12.7 mph - N/A   Scattered Clouds
8:55 AM 46.4 °F 41.1 °F 30.2 °F 53% 30.00 in 10.0 mi WNW 11.5 mph - N/A   Scattered Clouds
9:47 AM 51.8 °F - 32.0 °F 47% 29.99 in 10.0 mi West 8.1 mph - N/A   Scattered Clouds
10:47 AM 57.2 °F - 30.2 °F 36% 29.97 in 10.0 mi Calm Calm - N/A   Scattered Clouds
12:50 PM 64.4 °F - 30.2 °F 28% 29.96 in 10.0 mi SE 9.2 mph 16.1 mph N/A   Scattered Clouds
1:50 PM 64.4 °F - 30.2 °F 28% 29.95 in 10.0 mi SE 6.9 mph - N/A   Scattered Clouds
2:47 PM 66.2 °F - 30.2 °F 26% 29.93 in 10.0 mi SE 11.5 mph 18.4 mph N/A   Scattered Clouds
3:50 PM 64.4 °F - 28.4 °F 26% 29.93 in 10.0 mi ESE 8.1 mph 16.1 mph N/A   Mostly Cloudy
4:47 PM 66.2 °F - 30.2 °F 26% 29.92 in 10.0 mi SSE 6.9 mph - N/A   Mostly Cloudy
6:47 PM 64.4 °F - 28.4 °F 26% 29.91 in 10.0 mi SE 8.1 mph - N/A   Mostly Cloudy
7:47 PM 64.4 °F - 28.4 °F 26% 29.92 in 10.0 mi NNE 6.9 mph - N/A   Scattered Clouds
8:47 PM 62.6 °F - 28.4 °F 27% 29.94 in 10.0 mi NNE 6.9 mph - N/A   Scattered Clouds
9:47 PM 60.8 °F - 30.2 °F 31% 29.95 in 10.0 mi ENE 16.1 mph 27.6 mph N/A   Scattered Clouds
10:47 PM 59.0 °F - 30.2 °F 34% 29.96 in 10.0 mi NW 11.5 mph - N/A   Scattered Clouds
11:15 PM 55.4 °F - 32.0 °F 41% 29.96 in 10.0 mi NW 4.6 mph - N/A   Clear
11:35 PM 51.8 °F - 32.0 °F 47% 29.96 in 10.0 mi North 4.6 mph - N/A   Clear
11:55 PM 53.6 °F - 32.0 °F 44% 29.96 in 10.0 mi NNW 16.1 mph - N/A   Clear